Regional Weather Roundup
Issued by NWS

Home | Current Version | Previous Version | Text Only | Print | Product List | Glossary Off
Versions: 1 2 3 4 5 6 7 8 9 10 11 12 13 14 15 16 17 18 19 20 21 22 23 24 25 26 27 28 29 30 31 32 33 34 35 36 37 38 39 40 41 42 43 44 45 46 47 48 49 50

000
ASUS43 KTOP 170008
RWRKS

WEATHER ROUNDUP FOR KANSAS
NATIONAL WEATHER SERVICE GOODLAND KS
700 PM CDT WED APR 16 2014

NOTE:  "FAIR" INDICATES FEW OR NO CLOUDS BELOW 12,000 FEET WITH NO
SIGNIFICANT WEATHER AND/OR OBSTRUCTIONS TO VISIBILITY.

KSZ001>006-013>018-027>032-041>047-170100-
NORTHWEST KANSAS

CITY           SKY/WX    TMP DP  RH WIND       PRES   REMARKS
GOODLAND       CLOUDY    52  29  41 NE15      29.99R
6HR MIN TEMP:  52; 6HR MAX TEMP:  60;

HAYS           CLOUDY    57  34  41 N23       29.94R
HILL CITY      CLOUDY    56  32  40 N20       29.96R
6HR MIN TEMP:  56; 6HR MAX TEMP:  67;

RUSSELL        PTSUNNY   58  35  42 N21       29.91R
6HR MIN TEMP:  58; 6HR MAX TEMP:  70;

$$

KSZ061>065-074>080-084>089-170100-
SOUTHWEST KANSAS

CITY           SKY/WX    TMP DP  RH WIND       PRES   REMARKS
DODGE CITY     PTSUNNY   62  30  29 N14       29.90R
6HR MIN TEMP:  62; 6HR MAX TEMP:  68;

ELKHART          N/A     63  27  25 E13         N/A
GARDEN CITY    CLOUDY    60  25  26 N18       29.92R
6HR MIN TEMP:  60; 6HR MAX TEMP:  67;

GREAT BEND     MOSUNNY   64  30  27 N18G25    29.89R
LIBERAL        MOSUNNY   64  28  25 NE15      29.90S
PRATT          MOSUNNY   64  32  29 N10       29.90R
$$

KSZ066>073-081>083-090>101-170100-
SOUTHEAST KANSAS

CITY           SKY/WX    TMP DP  RH WIND       PRES   REMARKS
CHANUTE        SUNNY     62  33  33 S17       29.93R
6HR MIN TEMP:  60; 6HR MAX TEMP:  65;

COFFEYVILLE    SUNNY     63  32  31 S15G24    29.94R
6HR MIN TEMP:  60; 6HR MAX TEMP:  65;

HUTCHINSON     MOSUNNY   70  33  25 NW10      29.86R
6HR MIN TEMP:  66; 6HR MAX TEMP:  73;

MEDICINE LODGE   N/A     70  33  25 N13       29.85R
NEWTON         MOSUNNY   68  27  21 SW10      29.88R
PARSONS        SUNNY     63  32  31 S12G23    29.94R
6HR MIN TEMP:  60; 6HR MAX TEMP:  66;

WICHITA INTL   MOSUNNY   70  29  21 SW9       29.85R
6HR MIN TEMP:  65; 6HR MAX TEMP:  73;

WICHITA JABRA  MOSUNNY   69  29  22 S13       29.85R
6HR MIN TEMP:  65; 6HR MAX TEMP:  72;

WICHITA MCCONL SUNNY     70  25  18 S13       29.86R
WINFIELD       SUNNY     67  31  26 S20       29.89R
6HR MIN TEMP:  64; 6HR MAX TEMP:  71;

$$

KSZ007>012-019>026-033>040-048>060-102>105-170100-
NORTHEAST KANSAS

CITY           SKY/WX    TMP DP  RH WIND       PRES   REMARKS
CONCORDIA      MOSUNNY   53  35  50 N22G29    29.93R
6HR MIN TEMP:  53; 6HR MAX TEMP:  71;

EMPORIA        PTSUNNY   68  29  23 S16       29.85R
6HR MIN TEMP:  63; 6HR MAX TEMP:  69;

LAWRENCE       PTSUNNY   64  34  32 S16G28    29.85S
6HR MIN TEMP:  62; 6HR MAX TEMP:  67;

MANHATTAN      PTSUNNY   66  39  37 N13G25    29.85R
6HR MIN TEMP:  66; 6HR MAX TEMP:  72;

OLATHE IND     PTSUNNY   61  32  33 S17G29    29.89R
6HR MIN TEMP:  60; 6HR MAX TEMP:  64;

OLATHE EXE     PTSUNNY   61  32  33 S15G28    29.88S
6HR MIN TEMP:  59; 6HR MAX TEMP:  63;

SALINA         MOSUNNY   66  37  34 N26G35    29.87R
6HR MIN TEMP:  66; 6HR MAX TEMP:  74;

TOPEKA BILLARD PTSUNNY   69  30  23 S13       29.83R
6HR MIN TEMP:  62; 6HR MAX TEMP:  70; 6HR PCP: TRACE;

TOPEKA FORBES  PTSUNNY   66  31  27 S16       29.83R
6HR MIN TEMP:  60; 6HR MAX TEMP:  68;

$$



USA.gov is the U.S. government's official web portal to all federal, state and local government web resources and services.